Nantucket, MA

6:43 AM EDT on April 24, 2017 (GMT -0400)
Nantucket Memorial

Weather History for KACK - June, 2013

Change the Weather History Date:

Thursday, June 27, 2013

  Actual Average Record
Temperature  
Mean Temperature 65 °F -  
Max Temperature 69 °F 69 °F 87 °F (1963)
Min Temperature 62 °F 56 °F 48 °F (1974)
Growing Degree Days 15 (Base 50)    
Moisture  
Dew Point 64 °F    
Average Humidity 97    
Maximum Humidity 100    
Minimum Humidity 90    
Precipitation  
Precipitation 0.80 in - - ()
Sea Level Pressure  
Sea Level Pressure 29.81 in    
Wind  
Wind Speed 5 mph (South)    
Max Wind Speed 14 mph    
Max Gust Speed -    
Visibility 1 miles    
Events Fog , Rain    
Averages and records for this station are not official NWS values.
T = Trace of Precipitation, MM = Missing Value Source: NWS Daily Summary

Daily Weather History Graph

Daily Weather History Graph

Search for Another Location

Airport or City:

Trip Planner

Search our weather history database for the weather conditions in past years. The results will help you decide how hot, cold, wet, or windy it might be!

Date:

Astronomy

Jun. 27, 2013 Rise Set
Actual Time 5:09 AM EDT 8:17 PM EDT
Civil Twilight 4:35 AM EDT 8:51 PM EDT
Nautical Twilight 3:52 AM EDT 9:34 PM EDT
Astronomical Twilight 3:00 AM EDT 10:25 PM EDT
Moon 11:09 PM EDT (6/27) 10:09 AM EDT (6/27)
Length of Visible Light 16h 15m
Length of Day
15h 08m
Waning Gibbous, 76% of the Moon is Illuminated
Jun 27
Waning Gibbous
Jun 30
Last Quarter
Jul 8
New
Jul 15
First Quarter
Jul 22
Full

Hourly Weather History & Observations

Time (EDT) Temp. Dew Point Humidity Pressure Visibility Wind Dir Wind Speed Gust Speed Precip Events Conditions
12:53 AM 66.9 °F 64.0 °F 90% 29.84 in 10.0 mi WSW 3.5 mph - 0.00 in   Clear
1:53 AM 64.9 °F 63.0 °F 93% 29.84 in 4.0 mi SW 3.5 mph - N/A   Clear
2:15 AM 64.4 °F 62.6 °F 94% 29.84 in 6.0 mi SW 8.1 mph - N/A   Scattered Clouds
2:24 AM 66.2 °F 64.4 °F 94% 29.83 in 6.0 mi SW 5.8 mph - N/A   Mostly Cloudy
2:39 AM 64.4 °F 64.4 °F 100% 29.83 in 1.8 mi SW 4.6 mph - N/A   Overcast
2:47 AM 64.4 °F 64.4 °F 100% 29.83 in 0.2 mi Calm Calm - N/A Fog Fog
2:48 AM 64.4 °F 64.4 °F 100% 29.83 in 0.2 mi Calm Calm - N/A Fog Fog
2:53 AM 64.9 °F 64.0 °F 97% 29.83 in 0.2 mi Calm Calm - N/A Fog Fog
3:01 AM 66.2 °F 64.4 °F 94% 29.82 in 0.2 mi Calm Calm - N/A Fog Fog
3:53 AM 64.9 °F 64.0 °F 97% 29.81 in 0.2 mi Calm Calm - N/A Fog Fog
4:53 AM 64.0 °F 64.0 °F 100% 29.82 in 0.2 mi South 5.8 mph - N/A Fog Fog
5:53 AM 64.9 °F 64.0 °F 97% 29.83 in 0.2 mi South 5.8 mph - N/A Fog Fog
6:51 AM 64.4 °F 64.4 °F 100% 29.84 in 0.2 mi Calm Calm - N/A Fog Fog
6:53 AM 66.0 °F 64.9 °F 96% 29.84 in 0.2 mi Calm Calm - N/A Fog Fog
7:49 AM 64.4 °F 64.4 °F 100% 29.84 in 0.2 mi SSE 4.6 mph - N/A Fog Fog
7:53 AM 64.9 °F 64.0 °F 97% 29.84 in 0.2 mi SE 4.6 mph - N/A Fog Fog
8:16 AM 66.2 °F 64.4 °F 94% 29.84 in 0.8 mi Calm Calm - N/A   Mist
8:25 AM 66.2 °F 64.4 °F 94% 29.83 in 1.0 mi Calm Calm - N/A   Overcast
8:53 AM 68.0 °F 66.9 °F 96% 29.84 in 3.0 mi Calm Calm - N/A   Mist
9:34 AM 66.2 °F 64.4 °F 94% 29.83 in 1.2 mi NNE 9.2 mph - N/A   Overcast
9:53 AM 64.9 °F 64.0 °F 97% 29.84 in 1.2 mi North 8.1 mph - 0.01 in Rain Rain
10:53 AM 62.1 °F 61.0 °F 96% 29.83 in 0.8 mi SE 13.8 mph - 0.41 in   Mist
11:08 AM 64.4 °F 62.6 °F 94% 29.83 in 2.5 mi ESE 8.1 mph - 0.04 in   Mist
11:16 AM 64.4 °F 62.6 °F 94% 29.83 in 4.0 mi SE 8.1 mph - 0.06 in   Mist
11:53 AM 64.9 °F 64.0 °F 97% 29.82 in 4.0 mi ENE 3.5 mph - 0.14 in Rain Light Rain
12:14 PM 64.4 °F 62.6 °F 94% 29.82 in 1.8 mi SSE 6.9 mph - 0.02 in Rain Light Rain
12:21 PM 64.4 °F 62.6 °F 94% 29.81 in 2.0 mi SE 5.8 mph - 0.03 in Rain Heavy Rain
12:39 PM 66.2 °F 64.4 °F 94% 29.81 in 1.5 mi SE 8.1 mph - 0.06 in   Overcast
12:53 PM 68.0 °F 66.0 °F 93% 29.81 in 8.0 mi SSE 8.1 mph - 0.09 in   Overcast
1:53 PM 64.9 °F 64.0 °F 97% 29.81 in 6.0 mi SE 8.1 mph - 0.11 in   Overcast
2:41 PM 64.4 °F 62.6 °F 94% 29.80 in 0.5 mi SSE 6.9 mph - 0.04 in Fog Fog
2:53 PM 64.9 °F 64.0 °F 97% 29.80 in 0.2 mi SSE 8.1 mph - 0.04 in Fog Fog
3:08 PM 66.2 °F 64.4 °F 94% 29.79 in 0.2 mi South 10.4 mph - N/A Fog Fog
3:25 PM 66.2 °F 64.4 °F 94% 29.79 in 0.2 mi SSE 11.5 mph - N/A Fog Fog
3:37 PM 66.2 °F 64.4 °F 94% 29.79 in 0.2 mi South 10.4 mph - N/A Fog Fog
3:53 PM 64.9 °F 64.0 °F 97% 29.80 in 0.2 mi South 6.9 mph - N/A Fog Fog
4:25 PM 66.2 °F 64.4 °F 94% 29.79 in 0.2 mi South 8.1 mph - N/A Fog Fog
4:38 PM 66.2 °F 64.4 °F 94% 29.79 in 0.2 mi SSW 8.1 mph - N/A Fog Fog
4:46 PM 66.2 °F 64.4 °F 94% 29.79 in 0.2 mi SSW 6.9 mph - N/A Fog Fog
4:53 PM 64.9 °F 64.0 °F 97% 29.79 in 0.2 mi South 5.8 mph - N/A Fog Fog
5:34 PM 64.4 °F 64.4 °F 100% 29.78 in 0.2 mi SSW 5.8 mph - N/A Fog Fog
5:48 PM 64.4 °F 64.4 °F 100% 29.78 in 0.2 mi South 8.1 mph - N/A Fog Fog
5:53 PM 64.0 °F 63.0 °F 96% 29.78 in 0.2 mi South 8.1 mph - N/A Fog Fog
6:26 PM 64.4 °F 64.4 °F 100% 29.78 in 0.2 mi SSW 4.6 mph - N/A Fog Fog
6:37 PM 64.4 °F 64.4 °F 100% 29.78 in 0.2 mi SSW 5.8 mph - N/A Fog Fog
6:53 PM 66.0 °F 64.9 °F 96% 29.78 in 0.2 mi SSW 5.8 mph - N/A Fog Fog
7:53 PM 64.9 °F 64.0 °F 97% 29.79 in 0.2 mi South 6.9 mph - N/A Fog Fog
8:29 PM 64.4 °F 64.4 °F 100% 29.79 in 0.5 mi South 10.4 mph - N/A Fog Fog
8:38 PM 64.4 °F 62.6 °F 94% 29.79 in 0.5 mi South 9.2 mph - N/A Fog Fog
8:53 PM 64.0 °F 63.0 °F 96% 29.79 in 0.5 mi South 6.9 mph - N/A Fog Fog
9:21 PM 64.4 °F 64.4 °F 100% 29.80 in 0.2 mi SSW 6.9 mph - N/A Fog Fog
9:28 PM 64.4 °F 64.4 °F 100% 29.80 in 0.2 mi SSW 5.8 mph - N/A Fog Fog
9:49 PM 64.4 °F 64.4 °F 100% 29.80 in 0.2 mi SSW 6.9 mph - N/A Fog Fog
9:53 PM 64.9 °F 64.0 °F 97% 29.80 in 0.2 mi SSW 6.9 mph - N/A Fog Fog
10:00 PM 64.4 °F 64.4 °F 100% 29.80 in 0.5 mi South 6.9 mph - N/A Fog Fog
10:53 PM 64.9 °F 64.0 °F 97% 29.79 in 0.5 mi South 6.9 mph - N/A Fog Fog
10:59 PM 64.4 °F 64.4 °F 100% 29.79 in 0.2 mi South 6.9 mph - N/A Fog Fog
11:08 PM 64.4 °F 64.4 °F 100% 29.79 in 0.2 mi South 8.1 mph - N/A Fog Fog
11:53 PM 66.0 °F 64.9 °F 96% 29.77 in 0.2 mi South 6.9 mph - N/A Fog Fog